Location: Bosmont
(49.7318°N, 3.8587°E)
Time: 10:07:16
(UTC+00:00)

METEOR 2-8 DEB - Pass Details

Date: 01 March 2024
Orbit: 803 x 837 km, 82.5° (Epoch: 10 April)

Event Time Altitude Azimuth Distance (km) Brightness Sun altitude
Exits shadow 01:06:03 11° 5° (N) 2,354 ? -45.3°
Drops below altitude 10° 01:06:18 10° 5° (N) 2,450 ? -45.3°
Sets 01:08:45 0° 9° (N) 3,393 ? -45.1°
